Location: Sevinç
(38.9789°N, 32.2186°E)
Time: 04:42:34
(UTC+00:00)

Daily predictions for brighter satellites

Satellite Brightness Start Highest point End
(mag) Time Altitude Azimuth Time Altitude Azimuth Time Altitude Azimuth
Meteor 2-20 4.5 00:10:34 66° SE 00:11:12 71° E 00:17:19 10° NNE
IDEFIX/ARIANE 42P 3.6 00:13:03 10° N 00:16:41 34° NW 00:16:41 34° NW
Envisat 3.2 00:16:09 10° NNE 00:21:11 64° ESE 00:21:15 64° ESE
ISS -1.0 00:23:17 17° ENE 00:23:17 17° ENE 00:24:18 10° ENE
Meteor 1-27 Rocket 4.3 00:21:06 42° SE 00:22:40 55° E 00:28:26 10° NNE
Iridium 4 Rocket 3.5 00:23:28 66° NE 00:23:28 66° NE 00:28:00 10° N
MOZ.5/SAFIR/RUBIN 5/SL-8 4.1 00:27:09 58° NNW 00:27:09 58° NNW 00:30:54 10° NNW
Cosmos 1461 4.4 00:29:32 27° E 00:29:32 27° E 00:32:00 10° NE
H-2A R/B 3.4 00:31:28 39° NE 00:31:28 39° NE 00:34:26 10° N
Cosmos 1763 Rocket 3.7 00:33:22 58° NW 00:33:22 58° NW 00:38:17 10° N
Cosmos 990 Rocket 4.2 00:28:48 10° NNW 00:33:54 66° ENE 00:36:05 34° SE
ADEOS II 2.8 00:29:01 10° NNE 00:34:05 48° E 00:35:40 36° SSE
ADEOS Rocket 3.7 00:32:24 10° N 00:39:51 57° WNW 00:41:53 45° WSW
ALOS 2.2 00:36:45 10° NNE 00:41:19 76° ESE 00:41:29 74° SE
CZ-2D R/B 2.1 00:36:56 10° NNE 00:42:14 81° ESE 00:43:16 59° S
USA 281 3.8 00:51:27 36° W 00:51:27 36° W 00:56:37 10° NW
DELTA 2 R/B (1) 4.3 00:52:27 35° SSE 00:53:06 36° SSE 00:58:08 10° E
SL-19 R/B 4.4 00:49:02 10° NNE 00:54:48 83° ESE 00:57:21 37° S
Cosmos 1354 Rocket 3.8 00:50:50 10° NNW 00:56:06 77° WSW 00:58:08 38° S
Cosmos 2360 Rocket 2.0 00:51:24 10° NNW 00:57:04 76° WSW 01:01:44 15° SSE
Cosmos 1503 Rocket 4.3 00:52:24 10° NNW 00:56:51 46° W 00:56:51 46° W
Cosmos 2333 Rocket 2.7 00:52:39 10° NW 00:57:05 39° W 00:57:05 39° W
ATLAS 5 CENTAUR R/B 3.4 00:57:43 36° S 00:59:54 65° ESE 01:15:01 10° NE
Cosmos 540 Rocket 4.2 01:01:37 35° WNW 01:01:53 36° WNW 01:06:37 10° N
Cosmos 468 Rocket 4.1 01:06:35 47° WSW 01:07:44 58° WNW 01:12:58 10° N
Resurs 1-4 Rocket 2.4 01:05:56 10° N 01:11:02 49° WNW 01:12:17 41° WSW
Cosmos 2278 4.3 01:06:31 10° NW 01:11:11 35° W 01:11:11 35° W
H-2A R/B 3.5 01:08:14 10° NE 01:11:48 31° E 01:15:01 12° SSE
Cosmos 2322 Rocket 2.3 01:06:50 10° NNW 01:12:17 51° WSW 01:15:03 28° SSW
CZ-2C R/B 4.5 01:16:27 10° NE 01:20:19 24° E 01:24:05 10° SSE
CRYOSAT 2 4.3 01:18:22 19° S 01:21:54 84° W 01:26:49 10° N
Cosmos 1766 Rocket 3.4 01:18:40 10° NNW 01:22:58 63° W 01:24:44 33° SSW
H-2A R/B 2.3 01:20:44 10° N 01:25:44 53° WNW 01:27:58 31° SW
Cosmos 2219 Rocket 2.1 01:20:45 10° NNW 01:26:22 72° WSW 01:31:59 10° SSE
Meteor 2-11 Rocket 4.4 01:20:41 10° N 01:26:52 88° W 01:33:00 10° S
SL-16 R/B 3.8 01:22:55 10° NW 01:24:53 17° WNW 01:24:53 17° WNW
Meteor 1-11 Rocket 4.4 01:22:17 10° NNW 01:27:32 35° W 01:29:12 30° WSW
USA 267 4.2 01:23:46 10° NE 01:29:39 37° NNW 01:34:01 17° W
SL-14 R/B 3.6 01:28:27 17° S 01:31:21 62° E 01:35:12 10° NNE
SL-4 R/B 1.6 01:31:43 10° NW 01:35:35 87° SW 01:39:18 10° SE
ARGOS 3.2 01:30:28 10° NNE 01:35:52 84° ESE 01:40:54 12° SSW
METEOR-M 4.2 01:33:24 10° N 01:38:38 60° WNW 01:42:08 21° SW
Gbstr 26 Del rocket 2.6 01:38:26 10° NW 01:42:09 85° NE 01:46:01 10° SE
Cosmos 2322 4.3 01:40:50 10° NNW 01:46:30 60° ENE 01:52:05 10° SE
SL-08 R/B 4.5 01:45:51 10° N 01:52:09 73° W 01:58:26 10° S
Cosmos 372 Rocket 4.0 01:47:36 10° NNW 01:52:37 53° WSW 01:57:33 10° S
Meteor 2-4 Rocket 4.5 01:52:16 20° WSW 01:54:56 31° WNW 01:59:39 10° NNW
ISS -2.3 01:56:14 18° WNW 01:58:04 28° NNW 02:01:03 10° NNE
NOSS 3-4 (A) 3.9 01:51:30 10° NW 01:58:33 67° WSW 02:06:45 10° SSE
NOSS 3-4 (C) 3.9 01:52:03 10° NW 01:59:07 67° WSW 02:07:19 10° SSE
Aureole 1 Rocket 4.2 01:59:46 10° NW 02:03:49 30° WSW 02:08:41 10° SSW
USA 234 3.2 01:57:23 10° SE 02:03:55 78° SW 02:10:30 10° NW
Cosmos 1461 4.2 02:03:16 15° W 02:05:03 21° NW 02:07:55 10° N
Meteor 1-28 Rocket 4.3 02:04:54 10° SE 02:07:58 40° ENE 02:11:03 10° N
Cosmos 2084 Rocket 4.3 02:04:29 10° WNW 02:08:03 27° WSW 02:11:37 10° S
AQUA 4.2 02:04:22 10° N 02:08:47 43° WNW 02:13:10 10° SW
Cosmos 1151 Rocket 2.9 02:05:12 10° SSW 02:09:23 68° W 02:13:35 10° N
PAYLOAD A 4.2 02:06:43 10° NNE 02:11:25 66° ESE 02:16:02 10° S
S3M 4.1 02:06:07 10° S 02:12:29 87° W 02:18:50 10° N
Cosmos 2297 Rocket 2.3 02:07:22 10° SSW 02:12:59 80° ESE 02:18:40 10° NNE
ADEOS II 3.5 02:09:27 10° NNW 02:13:13 21° WNW 02:16:28 12° WSW
Cosmos 1386 Rocket 4.5 02:07:15 10° NNW 02:13:20 67° W 02:19:30 10° S
Cosmos 1500 Rocket 3.5 02:12:10 10° N 02:16:35 83° W 02:20:59 10° S
SL-16 R/B 2.6 02:10:43 10° S 02:16:52 60° WSW 02:23:04 10° NNW
ALOS 4.3 02:16:33 10° NW 02:17:34 11° WNW 02:18:33 10° WNW
Cosmos 858 Rocket 4.4 02:15:30 10° NNW 02:20:42 83° WSW 02:25:51 10° SSE
CZ-2D R/B 4.0 02:19:10 10° NNW 02:21:30 13° WNW 02:23:49 10° W
TSX-5 4.4 02:18:34 10° NNW 02:21:33 47° ENE 02:24:37 10° SE
COSMOS 2428 2.7 02:19:43 10° NNW 02:25:26 74° WSW 02:31:04 10° SSE
EXPRESS MD2 3.8 02:23:46 10° SSW 02:26:07 36° SE 02:29:31 10° ENE
Sich 1 3.8 02:25:09 10° NNW 02:28:43 28° W 02:32:15 10° SSW
Okean 3 Rocket 4.3 02:25:01 10° NNW 02:28:57 32° W 02:32:54 10° SSW
Cosmos 2263 Rocket 4.5 02:24:26 10° SSE 02:28:57 25° ESE 02:33:27 10° NE
Cosmos 1758 3.6 02:29:05 10° NNW 02:32:27 36° W 02:35:46 10° SSW
Cosmos 1898 Rocket 4.2 02:29:04 10° NW 02:33:30 30° W 02:37:56 10° SSW
Cosmos 1743 Rocket 3.5 02:33:11 10° N 02:37:35 78° W 02:41:54 10° S
Cosmos 1805 Rocket 3.9 02:33:56 10° NNW 02:38:05 43° W 02:42:11 10° SSW
Cosmos 1937 Rocket 4.0 02:33:24 10° NW 02:38:09 37° WSW 02:42:50 10° SSW
Cosmos 1953 3.9 02:34:43 10° N 02:38:10 38° E 02:41:35 10° SSE
DELTA 2 R/B (1) 3.6 02:33:37 10° WSW 02:39:09 83° SSE 02:44:43 10° E
Cosmos 158 Rocket 4.0 02:34:05 10° SSW 02:39:18 78° WNW 02:44:40 10° NNE
